Simultaneous Nadir Overpasses (SNOs) Predictions

Prediction of SNOs between FY3D and AQUA Satellite Orbit:

Table of predicted SNOs for the next 14.0 days since TLE Epoch: 6/4/2022
Index Date (FY3D) Time (FY3D) Lat,Lon (FY3D) SZA (FY3D ) Date (AQUA) Time (AQUA) Lat,Lon (AQUA) SZA (AQUA ) Distance(km) Time Diff (sec)
1 06/06/2022 12:14:57 75.54, -13.22 53.00 06/06/2022 12:15:30 75.55, -13.29 53.00 2.21 33
2 06/06/2022 13:05:22 -74.58, 156.91 128.08 06/06/2022 13:04:36 -74.58, 156.95 128.08 1.46 46
3 06/09/2022 03:41:58 -75.38, -64.45 127.43 06/09/2022 03:42:00 -75.38, -64.42 127.44 1.01 2
4 06/09/2022 04:30:55 69.89, 114.65 46.88 06/09/2022 04:29:42 69.83, 114.09 46.80 22.35 73
5 06/11/2022 18:18:29 -75.93, 74.71 127.00 06/11/2022 18:19:19 -75.93, 74.70 127.01 0.50 50
6 06/11/2022 19:08:52 74.85,-114.62 51.78 06/11/2022 19:08:24 74.84,-114.62 51.79 0.18 28
7 06/14/2022 09:45:30 75.78, 23.46 52.69 06/14/2022 09:45:49 75.77, 23.54 52.67 2.49 19
8 06/14/2022 10:35:48 -74.50,-165.41 128.75 06/14/2022 10:34:49 -74.49,-165.36 128.75 1.53 59
9 06/17/2022 00:21:56 76.10, 163.31 52.97 06/17/2022 00:23:03 76.11, 163.24 52.96 2.06 67



Historial Predications of SNOs between FY3D and AQUA
